Location: Lea Glen
(32.4457°N, 83.6730°W)
Time: 00:12:15
(UTC+00:00)

Daily predictions for brighter satellites

Satellite Brightness Start Highest point End
(mag) Time Altitude Azimuth Time Altitude Azimuth Time Altitude Azimuth
Cosmos 1980 Rocket 2.4 00:00:59 10° SSW 00:06:36 79° WNW 00:12:18 10° NNE
SL-8 R/B 4.5 00:02:41 10° WNW 00:07:21 54° SW 00:12:01 10° SSE
Cosmos 1302 Rocket 4.4 00:05:25 10° S 00:10:12 39° E 00:15:01 10° NNE
Cosmos 44 4.1 00:06:35 10° NNW 00:11:39 38° ENE 00:16:34 10° SE
ERS-2 2.0 00:08:01 10° NNE 00:11:39 72° ESE 00:15:17 10° S
Cosmos 1633 Rocket 4.0 00:08:07 10° SE 00:11:46 26° E 00:15:25 10° NNE
Timation 1 Rocket 4.3 00:09:57 10° NNW 00:15:55 69° ENE 00:21:49 10° SSE
RESURS DK-1 3.1 00:12:06 10° NNW 00:16:10 57° WSW 00:20:11 10° S
Cosmos 2322 Rocket 3.3 00:12:15 10° SSE 00:16:27 22° E 00:20:40 10° NE
SAR-Lupe-4 3.5 00:16:17 10° NNE 00:19:52 84° ESE 00:23:25 10° S
Cosmos 1867 4.2 00:14:59 10° SW 00:20:18 58° WNW 00:25:41 10° NNE
Atlas Centaur 2 3.8 00:18:14 10° W 00:24:03 31° SSW 00:28:47 10° SE
Centaur D-1AR AC-48 3.9 00:21:44 10° WSW 00:26:00 20° SSW 00:28:48 10° SSE
CZ-4 R/B 1.3 00:22:52 10° S 00:26:42 85° WSW 00:30:33 10° NNW
Cosmos 2082 3.6 00:21:13 10° NNW 00:26:51 87° ENE 00:32:28 10° SSE
Cosmos 1741 Rocket 4.0 00:23:37 10° NNW 00:28:57 90° NE 00:34:15 10° SSE
Meteor 1-20 Rocket 4.2 00:25:14 10° S 00:30:34 56° E 00:35:53 10° NNE
ERBS 2.1 00:27:19 10° SSW 00:30:36 67° SE 00:32:35 22° NE
IRS-1C Rocket 4.5 00:27:04 10° S 00:32:17 68° WSW 00:37:33 10° NNW
SL-16 R/B 2.4 00:30:30 10° S 00:35:51 45° ESE 00:41:14 10° NE
SL-24 R/B - RUBIN 2 4.3 00:30:41 10° NW 00:36:06 65° WSW 00:40:50 10° SSE
Cosmos 1470 Rocket 4.2 00:39:57 10° SSE 00:43:59 34° E 00:48:01 10° NNE
HJ-1C 3.2 00:41:03 10° SSE 00:44:23 88° E 00:47:43 10° N
BREEZE-M DEB (TANK) 3.3 00:44:33 10° SSW 00:46:56 37° SSE 00:46:56 37° SSE
SeaSat 1 4.4 00:43:17 10° N 00:47:28 28° WNW 00:51:38 10° WSW
Abrixas rocket 3.0 00:48:08 10° WSW 00:50:25 31° NW 00:50:44 30° NNW
Cosmos 2327 Rocket 4.5 00:45:32 10° S 00:51:49 62° E 00:58:04 10° NNE
DMSP B5D2-2 4.0 00:47:43 10° NNE 00:52:56 67° ESE 00:58:05 10° S
Cosmos 1602 3.5 00:51:11 10° S 00:55:01 75° E 00:58:54 10° N
Cosmos 1271 Rocket 2.5 00:52:05 10° N 00:55:46 61° E 00:56:23 52° SE
Cosmos 2154 Rocket 3.9 00:52:31 10° S 00:58:43 71° E 01:04:54 10° N
Cosmos 1461 3.4 00:54:30 10° SW 00:59:09 71° WNW 01:03:13 14° NNE
Cosmos 2263 Rocket 2.4 00:54:42 10° N 01:00:02 46° ENE 01:01:17 39° ESE
SL-08 RB Rocket 3.5 00:55:45 10° SSE 01:00:13 85° ENE 01:04:44 10° N
GP-B 4.5 01:02:28 24° NNE 01:02:28 24° NNE 01:04:26 10° NNE
Meteor 1-14 Rocket 4.3 00:57:08 10° SSE 01:02:35 49° E 01:07:55 10° NNE
H-2A R/B 3.4 00:59:19 10° SSW 01:04:21 42° W 01:09:30 10° NNW
Yuri Rocket 4.3 00:58:21 10° W 01:05:46 56° S 01:07:57 36° SE
Nadezhda 3 Rocket 4.1 01:00:22 10° N 01:06:35 54° E 01:12:31 11° SSE
Cosmos 1666 Rocket 4.5 01:02:50 10° SSW 01:07:03 49° W 01:11:16 10° N
ARGOS 3.7 01:03:22 10° S 01:08:40 58° W 01:14:00 10° NNW
Cosmos 1610 Rocket 4.4 01:03:26 10° S 01:09:34 87° E 01:15:48 10° N
Cosmos 1862 Rocket 4.1 01:11:19 10° N 01:14:35 45° NNE 01:14:35 45° NNE
Helios 1A Rocket 4.3 01:13:59 10° S 01:17:48 39° W 01:21:38 10° NNW
MetOp-A 4.0 01:17:36 52° SE 01:18:46 68° ENE 01:24:05 10° N
Cosmos 1295 Rocket 4.5 01:18:01 10° S 01:24:19 85° W 01:30:37 10° N
CZ-2C R/B 4.2 01:22:27 10° N 01:27:24 35° WNW 01:32:15 10° SW
Meteor 1-18 Rocket 4.2 01:21:52 10° N 01:27:48 72° E 01:28:27 65° SE
COSMOS 2455 3.1 01:23:35 10° NNW 01:29:32 66° WSW 01:32:50 27° S
SEDSat Delta rocket 4.4 01:27:31 10° W 01:31:24 30° SSW 01:31:24 30° SSW
Lacrosse 5 rocket 2.3 01:30:01 10° NW 01:33:43 45° WSW 01:33:43 45° WSW
Cosmos 2360 Rocket 3.2 01:29:19 10° S 01:32:13 31° S 01:32:13 31° S
Cosmos 1992 Rocket 4.2 01:34:24 10° SSW 01:39:36 69° WNW 01:40:25 58° NNW
Cosmos 2341 Rocket 3.9 01:37:29 10° S 01:43:50 85° E 01:50:11 10° N
SME Rocket 4.4 01:35:52 10° N 01:44:06 70° WNW 01:49:25 10° SSW
Cosmos 962 Rocket 4.4 01:38:40 10° S 01:44:48 82° W 01:51:02 10° N
Cosmos 2322 Rocket 3.4 01:54:58 10° SW 02:00:09 39° WNW 02:03:06 23° N
SL-16 R/B 4.5 02:15:57 10° WSW 02:20:08 21° WNW 02:24:18 10° NNW
ATLAS 2A CENTAUR R/B 4.3 01:52:18 10° W 02:27:42 53° SSW 02:29:35 49° S
Centaur D AC-29 4.1 08:58:33 16° SE 08:58:33 16° SE 08:59:26 10° ESE
Cosmos 1980 Rocket 4.3 09:02:28 17° NNE 09:04:52 22° ENE 09:09:12 10° ESE
Mugunghwa Rocket 4.5 09:40:06 49° SSE 09:40:06 49° SSE 09:45:22 10° ESE
Cosmos 2369 4.1 09:44:05 57° SE 09:44:05 57° SE 09:48:39 10° SSE
ALOS 3.9 09:40:29 10° NNE 09:42:44 28° NNE 09:42:44 28° NNE
H-2A R/B 3.9 09:45:03 39° WSW 09:53:27 74° S 09:59:30 10° E
Cosmos 2221 4.1 09:54:29 10° SSE 09:58:28 35° E 10:02:28 10° NNE
DELTA 4 R/B 4.1 10:01:12 14° SE 10:01:12 14° SE 10:01:37 10° SE
Cosmos 292 Rocket 4.3 09:59:11 29° N 10:01:26 56° ENE 10:06:08 10° SSE
OAO 1 4.4 10:02:27 76° N 10:02:35 77° N 10:08:05 10° E
H-2A R/B 3.0 10:01:30 10° SSE 10:05:43 47° ENE 10:09:51 10° N
ASTRO E2 4.2 10:06:29 30° SE 10:06:29 30° SE 10:09:24 10° E
Cosmos 2344 4.0 09:58:46 10° SSW 10:06:32 57° ESE 10:13:47 10° NE
Meteosat 1 Rocket2 4.1 10:08:28 46° SSW 10:09:11 48° S 10:13:42 10° E
Cosmos 2278 3.7 10:10:01 14° NNW 10:15:05 85° ENE 10:20:47 10° SSE
CBERS 1 LM4 rocket 4.2 10:11:14 10° N 10:15:51 68° NW 10:15:51 68° NW
CZ-4B R/B 4.4 10:14:29 10° ESE 10:16:35 16° ENE 10:18:40 10° NNE
SeaSat 1 2.5 10:11:50 10° SSE 10:16:44 77° ENE 10:20:53 15° NNW
S3M 3.9 10:17:53 10° S 10:24:00 88° E 10:30:08 10° N
IUS-7 SRM-1 4.3 10:27:53 27° SSW 10:28:45 30° S 10:36:57 10° ESE
DELTA 2 R/B (1) 4.2 10:29:31 35° SW 10:29:55 36° SW 10:34:58 10° SSE
ATLAS CENTAUR R/B 3.9 10:32:01 10° N 10:35:06 20° NE 10:38:19 10° ESE
Cosmos 2082 Rocket 4.0 10:37:25 15° NW 10:37:25 15° NW 10:39:14 10° NNW
Cosmos 1932 4.3 10:31:02 10° NNW 10:37:18 85° WSW 10:43:27 10° SSE
FENGYUN 3A 4.2 10:33:22 10° N 10:38:14 35° WNW 10:38:30 34° WNW
Cosmos 1745 Rocket 4.0 10:34:10 10° N 10:40:27 87° E 10:46:47 10° S
COSMO-SKYMED 1 3.3 10:38:03 10° SSE 10:42:15 53° ENE 10:46:30 10° N
NOSS 2-2 (C) 3.8 10:44:15 34° NW 10:44:15 34° NW 10:47:02 10° NNE
Cosmos 1452 Rocket 4.2 10:44:08 31° WSW 10:44:08 31° WSW 10:48:26 10° SSW
Meteor 1-4 Rocket 2.5 10:40:47 10° S 10:44:31 87° E 10:48:15 10° N
SL-08 ROCKET BODY 4.4 10:38:33 10° NNW 10:44:33 62° W 10:50:36 10° S
CZ-4B R/B 3.5 10:42:19 10° NNE 10:46:43 65° ESE 10:51:11 10° S
Milstar 3 Cent rocket 3.0 10:45:53 18° SW 10:48:44 36° SSE 10:53:43 10° E
Cosmos 1980 Rocket 2.5 10:44:25 14° NW 10:48:59 42° WSW 10:54:16 10° S
Meteor 2-3 Rocket 4.4 10:45:57 10° NNW 10:50:50 30° W 10:55:45 10° SSW
Cosmos 1862 3.6 10:46:54 10° N 10:50:56 71° E 10:54:57 10° SSE
Meteor 1-31 Rocket 3.1 10:50:59 10° N 10:54:38 40° WNW 10:57:19 16° SW
Cosmos 1606 3.2 10:52:27 10° S 10:56:16 63° E 11:00:06 10° NNE
IUS-12 SRM-1 4.2 10:54:50 20° SW 10:56:18 28° S 11:00:57 10° ESE
Cosmos 1743 Rocket 3.9 10:52:59 10° N 10:57:27 68° E 11:01:54 10° SSE
Cosmos 2322 Rocket 3.5 10:53:22 10° N 10:58:43 43° ENE 11:04:04 10° SE
ADEOS 3.9 10:54:39 10° N 10:59:33 42° WNW 11:04:25 10° SW
Cosmos 1110 Rocket 4.1 10:55:12 10° NNW 11:00:18 52° WSW 11:05:21 10° S
SKYMED 3 4.5 11:01:55 10° S 11:06:14 76° WSW 11:10:35 10° NNW
Cosmos 1461 3.8 11:05:10 21° WNW 11:07:01 28° WSW 11:10:37 10° S
X-37B 3.4 11:14:27 10° N 11:15:13 11° NNE 11:16:00 10° NNE
Cosmos 2315 Rocket 3.9 11:10:22 10° SSW 11:16:34 68° W 11:22:45 10° N
SL-16 R/B 2.3 11:13:06 10° NNW 11:18:48 85° ENE 11:24:28 10° SSE
Cosmos 1833 4.2 11:17:32 10° SSW 11:23:11 85° WNW 11:28:51 10° NNE
deb Chang Zheng 4 4.0 11:25:46 10° N 11:29:44 38° WNW 11:33:41 10° SW
SKYMED 2 4.1 11:26:16 10° SSW 11:30:17 37° W 11:34:19 10° NNW
NOAA 6 4.4 11:26:51 10° NNE 11:32:00 74° ESE 11:37:07 10° S
H-2A R/B 3.4 11:29:44 10° N 11:33:16 33° WNW 11:36:47 10° SW
MOS 1 Rocket 3.8 11:32:08 10° SSW 11:35:57 32° W 11:39:48 10° NNW
Cosmos 2221 4.2 11:33:42 10° WSW 11:36:06 14° WNW 11:38:30 10° NW
Cosmos 1500 Rocket 4.0 11:33:07 10° NNW 11:37:06 37° W 11:41:06 10° SSW
YAOGAN 6 3.0 11:37:51 10° N 11:41:08 37° WNW 11:44:22 10° SW
H-2A R/B 3.9 11:40:24 10° WSW 11:41:49 11° W 11:43:13 10° WNW
CZ-3 R/B 2.9 11:29:58 10° WSW 11:42:21 39° S 11:46:51 10° ESE
COSMOS 2487 2.4 11:40:12 10° SSW 11:43:35 89° ESE 11:47:00 10° NNE
Iridium 51 4.3 11:39:58 10° N 11:44:07 84° W 11:47:52 10° S
Sich 1 3.1 11:40:29 10° N 11:44:55 90° NW 11:49:20 10° S
CZ-4C R/B 3.9 11:41:22 10° S 11:45:25 33° ESE 11:50:00 10° NE
ASTRO E2 2.9 11:42:03 10° WSW 11:46:01 71° S 11:49:59 10° E
USA 215 3.3 11:42:01 10° NE 11:48:34 81° NW 11:55:06 10° SW
